Weather History for KMMH - June, 2013

Change the Weather History Date:

Thursday, June 13, 2013

  Actual Average (KBIH) Record (KBIH)
Temperature  
Mean Temperature 60 °F 71 °F  
Max Temperature 73 °F 91 °F 102 °F (1985)
Min Temperature 48 °F 50 °F 40 °F (1980)
Degree Days  
Heating Degree Days 4 1  
Month to date heating degree days 16  
Since 1 June heating degree days 16  
Since 1 July heating degree days 4174  
Cooling Degree Days 0 6  
Month to date cooling degree days 69  
Year to date cooling degree days 137  
Since 1 June cooling degree days 69  
Growing Degree Days 10 (Base 50)    
Moisture  
Dew Point 15 °F    
Average Humidity 19    
Maximum Humidity 40    
Minimum Humidity 6    
Precipitation  
Precipitation 0.00 in 0.00 in 0.20 in (2009)
Month to date precipitation 0.09  
Year to date precipitation 2.97  
Snow  
Snow 0.00 in 0.00 in - ()
Month to date snowfall 0.0  
Since 1 June snowfall 0.0  
Since 1 July snowfall 8.0  
Snow Depth -    
Sea Level Pressure  
Sea Level Pressure 30.17 in    
Wind  
Wind Speed 14 mph (WSW)    
Max Wind Speed 30 mph    
Max Gust Speed 46 mph    
Visibility 10 miles    
Events      
T = Trace of Precipitation, MM = Missing Value Source: NWS Daily Summary

Daily Weather History Graph

Daily Weather History Graph

Search for Another Location

Airport or City:

Trip Planner

Search our weather history database for the weather conditions in past years. The results will help you decide how hot, cold, wet, or windy it might be!

Date:

Astronomy

Jun. 13, 2013 Rise Set
Actual Time 5:33 AM PDT 8:17 PM PDT
Civil Twilight 5:02 AM PDT 8:49 PM PDT
Nautical Twilight 4:23 AM PDT 9:28 PM PDT
Astronomical Twilight 3:39 AM PDT 10:12 PM PDT
Moon 10:10 AM PDT (6/13) 11:31 PM PDT (6/13)
Length of Visible Light 15h 46m
Length of Day
14h 44m
Waxing Crescent, 22% of the Moon is Illuminated
Jun 13
Waxing Crescent
Jun 16
First Quarter
Jun 23
Full
Jun 29
Last Quarter
Jul 8
New

Hourly Weather History & Observations

Time (PDT) Temp. Dew Point Humidity Pressure Visibility Wind Dir Wind Speed Gust Speed Precip Events Conditions
12:15 AM 60.8 °F 21.2 °F 22% 30.16 in 10.0 mi SW 20.7 mph 26.5 mph N/A   Clear
12:35 AM 60.8 °F 21.2 °F 22% 30.16 in 10.0 mi SSW 12.7 mph 26.5 mph N/A   Clear
12:55 AM 60.8 °F 21.2 °F 22% 30.16 in 10.0 mi SSW 18.4 mph 27.6 mph N/A   Clear
1:15 AM 59.0 °F 21.2 °F 23% 30.16 in 10.0 mi SSW 12.7 mph 24.2 mph N/A   Clear
1:35 AM 59.0 °F 21.2 °F 23% 30.15 in 10.0 mi West 10.4 mph 23.0 mph N/A   Clear
1:55 AM 59.0 °F 23.0 °F 25% 30.14 in 10.0 mi SSW 24.2 mph 33.4 mph N/A   Clear
2:15 AM 59.0 °F 23.0 °F 25% 30.13 in 10.0 mi South 24.2 mph 35.7 mph N/A   Clear
2:35 AM 59.0 °F 23.0 °F 25% 30.13 in 10.0 mi SSW 24.2 mph 38.0 mph N/A   Clear
2:55 AM 59.0 °F 23.0 °F 25% 30.13 in 10.0 mi South 13.8 mph 33.4 mph N/A   Clear
3:15 AM 55.4 °F 24.8 °F 31% 30.14 in 10.0 mi SE 8.1 mph 20.7 mph N/A   Clear
3:35 AM 53.6 °F 26.6 °F 35% 30.13 in 10.0 mi East 13.8 mph 20.7 mph N/A   Clear
3:55 AM 50.0 °F 26.6 °F 40% 30.14 in 10.0 mi South 8.1 mph - N/A   Clear
4:15 AM 53.6 °F 24.8 °F 33% 30.13 in 10.0 mi ENE 3.5 mph 9.2 mph N/A   Clear
4:35 AM 57.2 °F 14.0 °F 18% 30.12 in 10.0 mi SSW 12.7 mph 19.6 mph N/A   Clear
4:55 AM 55.4 °F 17.6 °F 23% 30.13 in 10.0 mi Calm Calm - N/A   Clear
5:15 AM 51.8 °F 19.4 °F 28% 30.12 in 10.0 mi NW 4.6 mph - N/A   Clear
5:35 AM 50.0 °F 17.6 °F 28% 30.13 in 10.0 mi WNW 4.6 mph - N/A   Clear
5:55 AM 50.0 °F 15.8 °F 26% 30.13 in 10.0 mi WSW 3.5 mph - N/A   Clear
6:15 AM 51.8 °F 15.8 °F 24% 30.12 in 10.0 mi NW 9.2 mph - N/A   Clear
6:35 AM 53.6 °F 19.4 °F 26% 30.13 in 10.0 mi ESE 3.5 mph - N/A   Clear
6:55 AM 53.6 °F 23.0 °F 30% 30.13 in 10.0 mi SSE 10.4 mph - N/A   Clear
7:15 AM 57.2 °F 19.4 °F 23% 30.12 in 10.0 mi NE 5.8 mph - N/A   Clear
7:35 AM 59.0 °F 17.6 °F 20% 30.13 in 10.0 mi SE 8.1 mph 17.3 mph N/A   Clear
7:55 AM 60.8 °F 23.0 °F 23% 30.12 in 10.0 mi Calm Calm - N/A   Clear
8:15 AM 62.6 °F 14.0 °F 15% 30.12 in 10.0 mi ESE 5.8 mph - N/A   Clear
8:35 AM 64.4 °F 8.6 °F 11% 30.13 in 10.0 mi SW 3.5 mph - N/A   Clear
8:55 AM 66.2 °F -2.2 °F 6% 30.12 in 10.0 mi ESE 10.4 mph 26.5 mph N/A   Clear
9:15 AM 66.2 °F 1.4 °F 8% 30.13 in 10.0 mi SSW 24.2 mph 46.0 mph N/A   Clear
9:35 AM 66.2 °F 3.2 °F 8% 30.13 in 10.0 mi South 13.8 mph 31.1 mph N/A   Clear
9:55 AM 66.2 °F 5.0 °F 9% 30.14 in 10.0 mi South 9.2 mph 34.5 mph N/A   Clear
10:15 AM 68.0 °F 6.8 °F 9% 30.14 in 10.0 mi South 26.5 mph 38.0 mph N/A   Clear
10:35 AM 68.0 °F 6.8 °F 9% 30.14 in 10.0 mi WSW 15.0 mph 34.5 mph N/A   Clear
10:55 AM 69.8 °F 10.4 °F 10% 30.15 in 10.0 mi South 8.1 mph 34.5 mph N/A   Clear
11:15 AM 69.8 °F 10.4 °F 10% 30.16 in 10.0 mi SW 8.1 mph 27.6 mph N/A   Clear
11:35 AM 69.8 °F 8.6 °F 9% 30.16 in 10.0 mi SW 24.2 mph 40.3 mph N/A   Clear
11:55 AM 69.8 °F 10.4 °F 10% 30.16 in 10.0 mi South 15.0 mph 33.4 mph N/A   Clear
12:15 PM 69.8 °F 8.6 °F 9% 30.16 in 10.0 mi SSW 17.3 mph 38.0 mph N/A   Clear
12:35 PM 71.6 °F 8.6 °F 9% 30.17 in 10.0 mi SSW 10.4 mph 36.8 mph N/A   Clear
12:55 PM 71.6 °F 8.6 °F 9% 30.18 in 10.0 mi SW 6.9 mph 39.1 mph N/A   Clear
1:15 PM 71.6 °F 10.4 °F 9% 30.18 in 10.0 mi SW 13.8 mph 23.0 mph N/A   Clear
1:35 PM 71.6 °F 1.4 °F 6% 30.19 in 10.0 mi West 8.1 mph 24.2 mph N/A   Clear
1:55 PM 73.4 °F 8.6 °F 8% 30.20 in 10.0 mi WNW 29.9 mph 36.8 mph N/A   Clear
2:15 PM 71.6 °F 8.6 °F 9% 30.20 in 10.0 mi WNW 24.2 mph 31.1 mph N/A   Clear
2:35 PM 71.6 °F 8.6 °F 9% 30.19 in 10.0 mi WNW 19.6 mph 31.1 mph N/A   Clear
2:55 PM 71.6 °F 6.8 °F 8% 30.20 in 10.0 mi WNW 24.2 mph 31.1 mph N/A   Clear
3:15 PM 71.6 °F 6.8 °F 8% 30.20 in 10.0 mi NW 18.4 mph 32.2 mph N/A   Clear
3:35 PM 71.6 °F 8.6 °F 9% 30.19 in 10.0 mi WNW 24.2 mph 33.4 mph N/A   Clear
3:55 PM 71.6 °F 8.6 °F 9% 30.19 in 10.0 mi WNW 21.9 mph 35.7 mph N/A   Clear
4:15 PM 71.6 °F 12.2 °F 10% 30.19 in 10.0 mi WNW 18.4 mph 28.8 mph N/A   Clear
4:35 PM 71.6 °F 12.2 °F 10% 30.19 in 10.0 mi WNW 19.6 mph 24.2 mph N/A   Clear
4:55 PM 69.8 °F 14.0 °F 12% 30.18 in 10.0 mi WNW 19.6 mph 31.1 mph N/A   Clear
5:15 PM 69.8 °F 14.0 °F 12% 30.18 in 10.0 mi WNW 20.7 mph 28.8 mph N/A   Clear
5:35 PM 68.0 °F 14.0 °F 12% 30.18 in 10.0 mi NW 19.6 mph 27.6 mph N/A   Clear
5:55 PM 68.0 °F 14.0 °F 12% 30.19 in 10.0 mi WNW 21.9 mph 27.6 mph N/A   Clear
6:15 PM 68.0 °F 14.0 °F 12% 30.19 in 10.0 mi WNW 20.7 mph 25.3 mph N/A   Clear
6:35 PM 68.0 °F 15.8 °F 13% 30.19 in 10.0 mi WNW 16.1 mph 24.2 mph N/A   Clear
6:55 PM 66.2 °F 17.6 °F 15% 30.19 in 10.0 mi WNW 19.6 mph 26.5 mph N/A   Clear
7:15 PM 64.4 °F 17.6 °F 16% 30.19 in 10.0 mi WNW 17.3 mph 25.3 mph N/A   Clear
7:35 PM 64.4 °F 19.4 °F 18% 30.20 in 10.0 mi WNW 16.1 mph 23.0 mph N/A   Clear
7:55 PM 62.6 °F 21.2 °F 20% 30.20 in 10.0 mi WNW 18.4 mph 23.0 mph N/A   Clear
8:15 PM 59.0 °F 23.0 °F 25% 30.20 in 10.0 mi West 18.4 mph 23.0 mph N/A   Clear
8:35 PM 55.4 °F 23.0 °F 29% 30.20 in 10.0 mi West 6.9 mph - N/A   Clear
8:55 PM 55.4 °F 21.2 °F 26% 30.20 in 10.0 mi West 8.1 mph - N/A   Clear
9:15 PM 53.6 °F 21.2 °F 28% 30.20 in 10.0 mi WNW 6.9 mph - N/A   Clear
9:35 PM 51.8 °F 19.4 °F 28% 30.22 in 10.0 mi NW 6.9 mph - N/A   Clear
9:55 PM 51.8 °F 19.4 °F 28% 30.22 in 10.0 mi North 5.8 mph - N/A   Clear
10:15 PM 51.8 °F 21.2 °F 30% 30.22 in 10.0 mi Calm Calm - N/A   Clear
10:35 PM 51.8 °F 21.2 °F 30% 30.22 in 10.0 mi WSW 6.9 mph - N/A   Clear
10:55 PM 51.8 °F 19.4 °F 28% 30.22 in 10.0 mi West 5.8 mph - N/A   Clear
11:15 PM 48.2 °F 19.4 °F 32% 30.22 in 10.0 mi West 8.1 mph - N/A   Clear
11:35 PM 48.2 °F 19.4 °F 32% 30.22 in 10.0 mi West 12.7 mph - N/A   Clear
11:55 PM 48.2 °F 19.4 °F 32% 30.22 in 10.0 mi West 15.0 mph - N/A   Clear